owner,sensor,date,latitude,longitude,vertical_datum,sea_water_practical_salinity,qcFlag 
TCOON,ioos:station:TCOON:042:1,2016-02-01T18:00:00Z,27.8888,-97.5696,0.0,5.7,1111122 
TCOON,ioos:station:TCOON:042:1,2016-02-01T19:00:00Z,27.8888,-97.5696,0.0,6.3,1111122 
TCOON,ioos:station:TCOON:042:1,2016-02-01T21:00:00Z,27.8888,-97.5696,0.0,7.3,1111122 
TCOON,ioos:station:TCOON:042:1,2016-02-01T21:30:00Z,27.8888,-97.5696,0.0,7.9,1111122 
TCOON,ioos:station:TCOON:042:1,2016-02-01T22:30:00Z,27.8888,-97.5696,0.0,6.7,1111122 
TCOON,ioos:station:TCOON:042:1,2016-02-01T23:30:00Z,27.8888,-97.5696,0.0,8.5,1111122 
TCOON,ioos:station:TCOON:042:1,2016-02-02T00:30:00Z,27.8888,-97.5696,0.0,7.4,1111122 
TCOON,ioos:station:TCOON:042:1,2016-02-02T01:30:00Z,27.8888,-97.5696,0.0,7.1,1111122 
TCOON,ioos:station:TCOON:042:1,2016-02-02T02:30:00Z,27.8888,-97.5696,0.0,5.8,1111122 
TCOON,ioos:station:TCOON:042:1,2016-02-02T03:30:00Z,27.8888,-97.5696,0.0,6.0,1111122 
TCOON,ioos:station:TCOON:042:1,2016-02-02T04:30:00Z,27.8888,-97.5696,0.0,6.2,1111122 
TCOON,ioos:station:TCOON:042:1,2016-02-02T05:30:00Z,27.8888,-97.5696,0.0,6.6,1111122 
TCOON,ioos:station:TCOON:042:1,2016-02-02T06:30:00Z,27.8888,-97.5696,0.0,5.4,1111122 
TCOON,ioos:station:TCOON:042:1,2016-02-02T07:30:00Z,27.8888,-97.5696,0.0,6.2,1111122 
TCOON,ioos:station:TCOON:042:1,2016-02-02T08:30:00Z,27.8888,-97.5696,0.0,6.2,1111122 
TCOON,ioos:station:TCOON:042:1,2016-02-02T19:00:00Z,27.8888,-97.5696,0.0,6.3,1111122 
TCOON,ioos:station:TCOON:042:1,2016-02-02T19:30:00Z,27.8888,-97.5696,0.0,6.3,1111122 
TCOON,ioos:station:TCOON:042:1,2016-02-02T20:30:00Z,27.8888,-97.5696,0.0,6.5,1111122 
TCOON,ioos:station:TCOON:042:1,2016-02-02T21:30:00Z,27.8888,-97.5696,0.0,6.1,1111122 
TCOON,ioos:station:TCOON:042:1,2016-02-02T22:30:00Z,27.8888,-97.5696,0.0,6.1,1111122 
TCOON,ioos:station:TCOON:042:1,2016-02-02T23:30:00Z,27.8888,-97.5696,0.0,6.0,1111122 
TCOON,ioos:station:TCOON:042:1,2016-02-03T00:30:00Z,27.8888,-97.5696,0.0,6.1,1111122 
TCOON,ioos:station:TCOON:042:1,2016-02-03T01:30:00Z,27.8888,-97.5696,0.0,6.2,1111122 
TCOON,ioos:station:TCOON:042:1,2016-02-03T15:30:00Z,27.8888,-97.5696,0.0,11.3,1111122 
TCOON,ioos:station:TCOON:042:1,2016-02-04T18:00:00Z,27.8888,-97.5696,0.0,10.4,1111122 
TCOON,ioos:station:TCOON:042:1,2016-02-04T18:30:00Z,27.8888,-97.5696,0.0,9.6,1111122 
TCOON,ioos:station:TCOON:042:1,2016-02-04T19:30:00Z,27.8888,-97.5696,0.0,7.7,1111122 
TCOON,ioos:station:TCOON:042:1,2016-02-04T20:30:00Z,27.8888,-97.5696,0.0,6.8,1111122 
TCOON,ioos:station:TCOON:042:1,2016-02-04T21:30:00Z,27.8888,-97.5696,0.0,7.2,1111122 
TCOON,ioos:station:TCOON:042:1,2016-02-05T00:30:00Z,27.8888,-97.5696,0.0,7.0,1111122 
TCOON,ioos:station:TCOON:042:1,2016-02-05T01:30:00Z,27.8888,-97.5696,0.0,7.0,1111122 
TCOON,ioos:station:TCOON:042:1,2016-02-05T02:30:00Z,27.8888,-97.5696,0.0,7.1,1111122 
TCOON,ioos:station:TCOON:042:1,2016-02-05T03:30:00Z,27.8888,-97.5696,0.0,7.1,1111122 
TCOON,ioos:station:TCOON:042:1,2016-02-05T04:30:00Z,27.8888,-97.5696,0.0,7.1,1111122 
TCOON,ioos:station:TCOON:042:1,2016-02-05T05:30:00Z,27.8888,-97.5696,0.0,7.5,1111122 
TCOON,ioos:station:TCOON:042:1,2016-02-05T06:30:00Z,27.8888,-97.5696,0.0,8.3,1111122 
TCOON,ioos:station:TCOON:042:1,2016-02-05T07:30:00Z,27.8888,-97.5696,0.0,9.2,1111122 
TCOON,ioos:station:TCOON:042:1,2016-02-05T10:30:00Z,27.8888,-97.5696,0.0,14.9,1111122 
TCOON,ioos:station:TCOON:042:1,2016-02-05T11:30:00Z,27.8888,-97.5696,0.0,14.9,1111122 
TCOON,ioos:station:TCOON:042:1,2016-02-05T12:30:00Z,27.8888,-97.5696,0.0,14.3,1111122 
TCOON,ioos:station:TCOON:042:1,2016-02-05T13:30:00Z,27.8888,-97.5696,0.0,14.6,1111122 
TCOON,ioos:station:TCOON:042:1,2016-02-05T14:30:00Z,27.8888,-97.5696,0.0,13.0,1111122 
TCOON,ioos:station:TCOON:042:1,2016-02-05T15:30:00Z,27.8888,-97.5696,0.0,9.9,1111122 
TCOON,ioos:station:TCOON:042:1,2016-02-05T20:30:00Z,27.8888,-97.5696,0.0,14.6,1111122 
TCOON,ioos:station:TCOON:042:1,2016-02-06T01:00:00Z,27.8888,-97.5696,0.0,8.1,1111122 
TCOON,ioos:station:TCOON:042:1,2016-02-06T01:30:00Z,27.8888,-97.5696,0.0,7.7,1111122 
TCOON,ioos:station:TCOON:042:1,2016-02-06T02:30:00Z,27.8888,-97.5696,0.0,8.0,1111122 
TCOON,ioos:station:TCOON:042:1,2016-02-06T23:30:00Z,27.8888,-97.5696,0.0,6.6,1111122 
TCOON,ioos:station:TCOON:042:1,2016-02-07T00:30:00Z,27.8888,-97.5696,0.0,6.2,1111122 
TCOON,ioos:station:TCOON:042:1,2016-02-07T01:30:00Z,27.8888,-97.5696,0.0,6.2,1111122 
TCOON,ioos:station:TCOON:042:1,2016-02-07T02:30:00Z,27.8888,-97.5696,0.0,5.9,1111122 
TCOON,ioos:station:TCOON:042:1,2016-02-07T03:30:00Z,27.8888,-97.5696,0.0,6.1,1111122 
TCOON,ioos:station:TCOON:042:1,2016-02-07T04:30:00Z,27.8888,-97.5696,0.0,6.7,1111122 
TCOON,ioos:station:TCOON:042:1,2016-02-07T05:30:00Z,27.8888,-97.5696,0.0,7.0,1111122 
TCOON,ioos:station:TCOON:042:1,2016-02-07T10:00:00Z,27.8888,-97.5696,0.0,7.6,1111122 
TCOON,ioos:station:TCOON:042:1,2016-02-07T11:30:00Z,27.8888,-97.5696,0.0,9.0,1111122 
TCOON,ioos:station:TCOON:042:1,2016-02-07T12:30:00Z,27.8888,-97.5696,0.0,9.6,1111122 
TCOON,ioos:station:TCOON:042:1,2016-02-07T13:30:00Z,27.8888,-97.5696,0.0,10.2,1111122 
TCOON,ioos:station:TCOON:042:1,2016-02-07T14:30:00Z,27.8888,-97.5696,0.0,10.6,1111122 
TCOON,ioos:station:TCOON:042:1,2016-02-07T15:30:00Z,27.8888,-97.5696,0.0,9.4,1111122 
TCOON,ioos:station:TCOON:042:1,2016-02-07T16:30:00Z,27.8888,-97.5696,0.0,9.0,1111122 
TCOON,ioos:station:TCOON:042:1,2016-02-07T18:30:00Z,27.8888,-97.5696,0.0,7.7,1111122 
TCOON,ioos:station:TCOON:042:1,2016-02-07T19:30:00Z,27.8888,-97.5696,0.0,7.2,1111122 
TCOON,ioos:station:TCOON:042:1,2016-02-07T22:30:00Z,27.8888,-97.5696,0.0,16.1,1111122 
TCOON,ioos:station:TCOON:042:1,2016-02-07T23:30:00Z,27.8888,-97.5696,0.0,16.2,1111122 
TCOON,ioos:station:TCOON:042:1,2016-02-08T00:30:00Z,27.8888,-97.5696,0.0,15.8,1111122 
TCOON,ioos:station:TCOON:042:1,2016-02-08T01:30:00Z,27.8888,-97.5696,0.0,14.9,1111122 
TCOON,ioos:station:TCOON:042:1,2016-02-08T03:30:00Z,27.8888,-97.5696,0.0,6.9,1111122 
TCOON,ioos:station:TCOON:042:1,2016-02-08T04:30:00Z,27.8888,-97.5696,0.0,6.1,1111122 
TCOON,ioos:station:TCOON:042:1,2016-02-08T05:30:00Z,27.8888,-97.5696,0.0,7.1,1111122 
TCOON,ioos:station:TCOON:042:1,2016-02-08T06:30:00Z,27.8888,-97.5696,0.0,16.1,1111122 
TCOON,ioos:station:TCOON:042:1,2016-02-08T07:30:00Z,27.8888,-97.5696,0.0,16.5,1111122 
TCOON,ioos:station:TCOON:042:1,2016-02-08T10:30:00Z,27.8888,-97.5696,0.0,15.1,1111122 
TCOON,ioos:station:TCOON:042:1,2016-02-08T11:30:00Z,27.8888,-97.5696,0.0,15.5,1111122 
TCOON,ioos:station:TCOON:042:1,2016-02-08T12:30:00Z,27.8888,-97.5696,0.0,15.6,1111122 
TCOON,ioos:station:TCOON:042:1,2016-02-08T14:30:00Z,27.8888,-97.5696,0.0,8.1,1111122 
TCOON,ioos:station:TCOON:042:1,2016-02-08T15:30:00Z,27.8888,-97.5696,0.0,5.7,1111122 
TCOON,ioos:station:TCOON:042:1,2016-02-08T16:30:00Z,27.8888,-97.5696,0.0,6.0,1111122 
TCOON,ioos:station:TCOON:042:1,2016-02-08T17:30:00Z,27.8888,-97.5696,0.0,6.9,1111122 
TCOON,ioos:station:TCOON:042:1,2016-02-08T18:30:00Z,27.8888,-97.5696,0.0,15.3,1111122 
TCOON,ioos:station:TCOON:042:1,2016-02-08T19:30:00Z,27.8888,-97.5696,0.0,14.6,1111122 
TCOON,ioos:station:TCOON:042:1,2016-02-08T20:30:00Z,27.8888,-97.5696,0.0,10.7,1111122 
TCOON,ioos:station:TCOON:042:1,2016-02-08T21:30:00Z,27.8888,-97.5696,0.0,12.6,1111122 
TCOON,ioos:station:TCOON:042:1,2016-02-08T22:30:00Z,27.8888,-97.5696,0.0,7.7,1111122 
TCOON,ioos:station:TCOON:042:1,2016-02-09T00:30:00Z,27.8888,-97.5696,0.0,7.8,1111122 
TCOON,ioos:station:TCOON:042:1,2016-02-09T02:30:00Z,27.8888,-97.5696,0.0,7.8,1111122 
TCOON,ioos:station:TCOON:042:1,2016-02-09T03:30:00Z,27.8888,-97.5696,0.0,7.8,1111122 
TCOON,ioos:station:TCOON:042:1,2016-02-09T04:30:00Z,27.8888,-97.5696,0.0,7.7,1111122 
TCOON,ioos:station:TCOON:042:1,2016-02-09T05:30:00Z,27.8888,-97.5696,0.0,7.7,1111122 
TCOON,ioos:station:TCOON:042:1,2016-02-09T06:30:00Z,27.8888,-97.5696,0.0,7.8,1111122 
TCOON,ioos:station:TCOON:042:1,2016-02-09T07:30:00Z,27.8888,-97.5696,0.0,7.9,1111122 
TCOON,ioos:station:TCOON:042:1,2016-02-09T10:00:00Z,27.8888,-97.5696,0.0,8.4,1111122 
TCOON,ioos:station:TCOON:042:1,2016-02-09T10:30:00Z,27.8888,-97.5696,0.0,8.4,1111122 
TCOON,ioos:station:TCOON:042:1,2016-02-09T11:30:00Z,27.8888,-97.5696,0.0,8.3,1111122 
TCOON,ioos:station:TCOON:042:1,2016-02-09T12:30:00Z,27.8888,-97.5696,0.0,8.4,1111122 
TCOON,ioos:station:TCOON:042:1,2016-02-09T13:30:00Z,27.8888,-97.5696,0.0,7.5,1111122 
TCOON,ioos:station:TCOON:042:1,2016-02-09T14:30:00Z,27.8888,-97.5696,0.0,4.3,1111122 
TCOON,ioos:station:TCOON:042:1,2016-02-09T15:30:00Z,27.8888,-97.5696,0.0,5.0,1111122 
TCOON,ioos:station:TCOON:042:1,2016-02-09T16:30:00Z,27.8888,-97.5696,0.0,5.3,1111122 
TCOON,ioos:station:TCOON:042:1,2016-02-09T17:30:00Z,27.8888,-97.5696,0.0,4.3,1111122 
TCOON,ioos:station:TCOON:042:1,2016-02-09T19:30:00Z,27.8888,-97.5696,0.0,3.1,1111122 
TCOON,ioos:station:TCOON:042:1,2016-02-09T20:30:00Z,27.8888,-97.5696,0.0,2.8,1111122 
TCOON,ioos:station:TCOON:042:1,2016-02-09T21:30:00Z,27.8888,-97.5696,0.0,8.6,1111122 
TCOON,ioos:station:TCOON:042:1,2016-02-09T23:30:00Z,27.8888,-97.5696,0.0,8.9,1111122 
TCOON,ioos:station:TCOON:042:1,2016-02-10T01:30:00Z,27.8888,-97.5696,0.0,9.1,1111122 
TCOON,ioos:station:TCOON:042:1,2016-02-10T02:30:00Z,27.8888,-97.5696,0.0,9.1,1111122 
TCOON,ioos:station:TCOON:042:1,2016-02-10T03:30:00Z,27.8888,-97.5696,0.0,9.1,1111122 
TCOON,ioos:station:TCOON:042:1,2016-02-10T04:30:00Z,27.8888,-97.5696,0.0,9.2,1111122 
TCOON,ioos:station:TCOON:042:1,2016-02-10T05:30:00Z,27.8888,-97.5696,0.0,9.2,1111122 
TCOON,ioos:station:TCOON:042:1,2016-02-10T06:30:00Z,27.8888,-97.5696,0.0,9.4,1111122 
TCOON,ioos:station:TCOON:042:1,2016-02-10T07:30:00Z,27.8888,-97.5696,0.0,9.5,1111122 
TCOON,ioos:station:TCOON:042:1,2016-02-10T08:30:00Z,27.8888,-97.5696,0.0,9.7,1111122 
TCOON,ioos:station:TCOON:042:1,2016-02-10T10:00:00Z,27.8888,-97.5696,0.0,9.9,1111122 
TCOON,ioos:station:TCOON:042:1,2016-02-10T10:30:00Z,27.8888,-97.5696,0.0,9.8,1111122 
TCOON,ioos:station:TCOON:042:1,2016-02-10T11:30:00Z,27.8888,-97.5696,0.0,9.7,1111122 
TCOON,ioos:station:TCOON:042:1,2016-02-10T14:30:00Z,27.8888,-97.5696,0.0,5.3,1111122 
TCOON,ioos:station:TCOON:042:1,2016-02-10T15:30:00Z,27.8888,-97.5696,0.0,5.8,1111122 
TCOON,ioos:station:TCOON:042:1,2016-02-10T16:30:00Z,27.8888,-97.5696,0.0,3.7,1111122 
TCOON,ioos:station:TCOON:042:1,2016-02-10T17:30:00Z,27.8888,-97.5696,0.0,4.5,1111122 
TCOON,ioos:station:TCOON:042:1,2016-02-10T18:30:00Z,27.8888,-97.5696,0.0,3.2,1111122 
TCOON,ioos:station:TCOON:042:1,2016-02-10T23:30:00Z,27.8888,-97.5696,0.0,4.3,1111122 
TCOON,ioos:station:TCOON:042:1,2016-02-11T00:30:00Z,27.8888,-97.5696,0.0,10.2,1111122 
TCOON,ioos:station:TCOON:042:1,2016-02-11T01:30:00Z,27.8888,-97.5696,0.0,10.1,1111122 
TCOON,ioos:station:TCOON:042:1,2016-02-11T02:30:00Z,27.8888,-97.5696,0.0,10.0,1111122 
TCOON,ioos:station:TCOON:042:1,2016-02-11T03:30:00Z,27.8888,-97.5696,0.0,10.0,1111122 
TCOON,ioos:station:TCOON:042:1,2016-02-11T04:30:00Z,27.8888,-97.5696,0.0,9.9,1111122 
TCOON,ioos:station:TCOON:042:1,2016-02-11T06:30:00Z,27.8888,-97.5696,0.0,9.8,1111122 
TCOON,ioos:station:TCOON:042:1,2016-02-11T07:30:00Z,27.8888,-97.5696,0.0,9.8,1111122 
TCOON,ioos:station:TCOON:042:1,2016-02-11T08:30:00Z,27.8888,-97.5696,0.0,9.7,1111122 
TCOON,ioos:station:TCOON:042:1,2016-02-11T10:00:00Z,27.8888,-97.5696,0.0,9.7,1111122 
TCOON,ioos:station:TCOON:042:1,2016-02-11T10:30:00Z,27.8888,-97.5696,0.0,9.7,1111122 
TCOON,ioos:station:TCOON:042:1,2016-02-11T11:30:00Z,27.8888,-97.5696,0.0,9.8,1111122 
TCOON,ioos:station:TCOON:042:1,2016-02-11T12:30:00Z,27.8888,-97.5696,0.0,9.9,1111122 
TCOON,ioos:station:TCOON:042:1,2016-02-11T13:30:00Z,27.8888,-97.5696,0.0,9.6,1111122 
TCOON,ioos:station:TCOON:042:1,2016-02-11T15:30:00Z,27.8888,-97.5696,0.0,4.0,1111122 
TCOON,ioos:station:TCOON:042:1,2016-02-11T18:30:00Z,27.8888,-97.5696,0.0,4.4,1111122 
TCOON,ioos:station:TCOON:042:1,2016-02-11T19:30:00Z,27.8888,-97.5696,0.0,3.1,1111122 
TCOON,ioos:station:TCOON:042:1,2016-02-11T20:30:00Z,27.8888,-97.5696,0.0,10.5,1111122 
TCOON,ioos:station:TCOON:042:1,2016-02-11T21:30:00Z,27.8888,-97.5696,0.0,10.5,1111122 
TCOON,ioos:station:TCOON:042:1,2016-02-11T22:30:00Z,27.8888,-97.5696,0.0,10.6,1111122 
TCOON,ioos:station:TCOON:042:1,2016-02-12T02:30:00Z,27.8888,-97.5696,0.0,11.0,1111122 
TCOON,ioos:station:TCOON:042:1,2016-02-12T03:30:00Z,27.8888,-97.5696,0.0,11.0,1111122 
TCOON,ioos:station:TCOON:042:1,2016-02-12T04:30:00Z,27.8888,-97.5696,0.0,11.0,1111122 
TCOON,ioos:station:TCOON:042:1,2016-02-12T06:30:00Z,27.8888,-97.5696,0.0,10.9,1111122 
TCOON,ioos:station:TCOON:042:1,2016-02-12T07:30:00Z,27.8888,-97.5696,0.0,11.0,1111122 
TCOON,ioos:station:TCOON:042:1,2016-02-12T10:00:00Z,27.8888,-97.5696,0.0,10.9,1111122 
TCOON,ioos:station:TCOON:042:1,2016-02-12T10:30:00Z,27.8888,-97.5696,0.0,10.9,1111122 
TCOON,ioos:station:TCOON:042:1,2016-02-12T11:30:00Z,27.8888,-97.5696,0.0,10.9,1111122 
TCOON,ioos:station:TCOON:042:1,2016-02-12T14:30:00Z,27.8888,-97.5696,0.0,6.6,1111122 
TCOON,ioos:station:TCOON:042:1,2016-02-12T15:30:00Z,27.8888,-97.5696,0.0,6.0,1111122 
TCOON,ioos:station:TCOON:042:1,2016-02-12T16:30:00Z,27.8888,-97.5696,0.0,4.6,1111122 
TCOON,ioos:station:TCOON:042:1,2016-02-12T17:30:00Z,27.8888,-97.5696,0.0,6.7,1111122 
TCOON,ioos:station:TCOON:042:1,2016-02-12T18:30:00Z,27.8888,-97.5696,0.0,10.7,1111122 
TCOON,ioos:station:TCOON:042:1,2016-02-12T19:30:00Z,27.8888,-97.5696,0.0,3.4,1111122 
TCOON,ioos:station:TCOON:042:1,2016-02-12T20:30:00Z,27.8888,-97.5696,0.0,10.5,1111122 
TCOON,ioos:station:TCOON:042:1,2016-02-12T21:30:00Z,27.8888,-97.5696,0.0,10.6,1111122 
TCOON,ioos:station:TCOON:042:1,2016-02-12T22:30:00Z,27.8888,-97.5696,0.0,10.6,1111122 
TCOON,ioos:station:TCOON:042:1,2016-02-12T23:30:00Z,27.8888,-97.5696,0.0,10.6,1111122 
TCOON,ioos:station:TCOON:042:1,2016-02-13T00:30:00Z,27.8888,-97.5696,0.0,10.7,1111122 
TCOON,ioos:station:TCOON:042:1,2016-02-13T01:30:00Z,27.8888,-97.5696,0.0,10.7,1111122 
TCOON,ioos:station:TCOON:042:1,2016-02-13T02:30:00Z,27.8888,-97.5696,0.0,10.8,1111122 
TCOON,ioos:station:TCOON:042:1,2016-02-13T04:30:00Z,27.8888,-97.5696,0.0,10.8,1111122 
TCOON,ioos:station:TCOON:042:1,2016-02-13T05:30:00Z,27.8888,-97.5696,0.0,10.8,1111122 
TCOON,ioos:station:TCOON:042:1,2016-02-13T06:30:00Z,27.8888,-97.5696,0.0,10.8,1111122 
TCOON,ioos:station:TCOON:042:1,2016-02-13T07:30:00Z,27.8888,-97.5696,0.0,10.8,1111122 
TCOON,ioos:station:TCOON:042:1,2016-02-13T08:30:00Z,27.8888,-97.5696,0.0,10.8,1111122 
TCOON,ioos:station:TCOON:042:1,2016-02-13T09:30:00Z,27.8888,-97.5696,0.0,10.8,1111122 
TCOON,ioos:station:TCOON:042:1,2016-02-13T10:30:00Z,27.8888,-97.5696,0.0,10.8,1111122 
TCOON,ioos:station:TCOON:042:1,2016-02-13T13:30:00Z,27.8888,-97.5696,0.0,7.9,1111122 
TCOON,ioos:station:TCOON:042:1,2016-02-13T14:30:00Z,27.8888,-97.5696,0.0,4.2,1111122 
TCOON,ioos:station:TCOON:042:1,2016-02-13T15:30:00Z,27.8888,-97.5696,0.0,5.1,1111122 
TCOON,ioos:station:TCOON:042:1,2016-02-13T17:30:00Z,27.8888,-97.5696,0.0,10.5,1111122 
TCOON,ioos:station:TCOON:042:1,2016-02-13T18:30:00Z,27.8888,-97.5696,0.0,6.8,1111122 
TCOON,ioos:station:TCOON:042:1,2016-02-13T19:30:00Z,27.8888,-97.5696,0.0,10.6,1111122 
TCOON,ioos:station:TCOON:042:1,2016-02-13T20:30:00Z,27.8888,-97.5696,0.0,10.6,1111122 
TCOON,ioos:station:TCOON:042:1,2016-02-13T21:30:00Z,27.8888,-97.5696,0.0,10.8,1111122 
TCOON,ioos:station:TCOON:042:1,2016-02-13T22:30:00Z,27.8888,-97.5696,0.0,10.8,1111122 
TCOON,ioos:station:TCOON:042:1,2016-02-13T23:30:00Z,27.8888,-97.5696,0.0,10.8,1111122 
TCOON,ioos:station:TCOON:042:1,2016-02-14T00:30:00Z,27.8888,-97.5696,0.0,10.8,1111122 
TCOON,ioos:station:TCOON:042:1,2016-02-14T01:30:00Z,27.8888,-97.5696,0.0,10.8,1111122 
TCOON,ioos:station:TCOON:042:1,2016-02-14T02:30:00Z,27.8888,-97.5696,0.0,10.8,1111122 
TCOON,ioos:station:TCOON:042:1,2016-02-14T03:30:00Z,27.8888,-97.5696,0.0,10.8,1111122 
TCOON,ioos:station:TCOON:042:1,2016-02-14T04:30:00Z,27.8888,-97.5696,0.0,10.8,1111122 
TCOON,ioos:station:TCOON:042:1,2016-02-14T05:30:00Z,27.8888,-97.5696,0.0,10.9,1111122 
TCOON,ioos:station:TCOON:042:1,2016-02-14T06:30:00Z,27.8888,-97.5696,0.0,10.9,1111122 
TCOON,ioos:station:TCOON:042:1,2016-02-14T07:30:00Z,27.8888,-97.5696,0.0,10.9,1111122 
TCOON,ioos:station:TCOON:042:1,2016-02-14T08:30:00Z,27.8888,-97.5696,0.0,10.9,1111122 
TCOON,ioos:station:TCOON:042:1,2016-02-14T10:00:00Z,27.8888,-97.5696,0.0,10.9,1111122 
TCOON,ioos:station:TCOON:042:1,2016-02-14T10:30:00Z,27.8888,-97.5696,0.0,10.9,1111122 
TCOON,ioos:station:TCOON:042:1,2016-02-14T11:30:00Z,27.8888,-97.5696,0.0,10.9,1111122 
TCOON,ioos:station:TCOON:042:1,2016-02-14T12:30:00Z,27.8888,-97.5696,0.0,10.9,1111122 
TCOON,ioos:station:TCOON:042:1,2016-02-14T14:30:00Z,27.8888,-97.5696,0.0,5.6,1111122 
TCOON,ioos:station:TCOON:042:1,2016-02-14T15:30:00Z,27.8888,-97.5696,0.0,3.8,1111122 
TCOON,ioos:station:TCOON:042:1,2016-02-14T16:30:00Z,27.8888,-97.5696,0.0,6.1,1111122 
TCOON,ioos:station:TCOON:042:1,2016-02-14T18:30:00Z,27.8888,-97.5696,0.0,4.4,1111122 
TCOON,ioos:station:TCOON:042:1,2016-02-14T19:30:00Z,27.8888,-97.5696,0.0,10.7,1111122 
TCOON,ioos:station:TCOON:042:1,2016-02-14T20:30:00Z,27.8888,-97.5696,0.0,10.8,1111122 
TCOON,ioos:station:TCOON:042:1,2016-02-14T21:30:00Z,27.8888,-97.5696,0.0,10.4,1111122 
TCOON,ioos:station:TCOON:042:1,2016-02-14T22:30:00Z,27.8888,-97.5696,0.0,12.8,1111122 
TCOON,ioos:station:TCOON:042:1,2016-02-14T23:30:00Z,27.8888,-97.5696,0.0,17.8,1111122 
TCOON,ioos:station:TCOON:042:1,2016-02-15T00:30:00Z,27.8888,-97.5696,0.0,22.7,1111122 
TCOON,ioos:station:TCOON:042:1,2016-02-15T01:30:00Z,27.8888,-97.5696,0.0,20.3,1111122 
TCOON,ioos:station:TCOON:042:1,2016-02-15T02:30:00Z,27.8888,-97.5696,0.0,18.5,1111122 
TCOON,ioos:station:TCOON:042:1,2016-02-15T03:30:00Z,27.8888,-97.5696,0.0,22.4,1111122 
TCOON,ioos:station:TCOON:042:1,2016-02-15T04:30:00Z,27.8888,-97.5696,0.0,21.5,1111122 
TCOON,ioos:station:TCOON:042:1,2016-02-15T05:30:00Z,27.8888,-97.5696,0.0,21.1,1111122 
TCOON,ioos:station:TCOON:042:1,2016-02-15T06:30:00Z,27.8888,-97.5696,0.0,20.5,1111122 
TCOON,ioos:station:TCOON:042:1,2016-02-15T07:30:00Z,27.8888,-97.5696,0.0,20.3,1111122 
TCOON,ioos:station:TCOON:042:1,2016-02-15T08:30:00Z,27.8888,-97.5696,0.0,20.4,1111122 
TCOON,ioos:station:TCOON:042:1,2016-02-15T09:30:00Z,27.8888,-97.5696,0.0,20.3,1111122 
TCOON,ioos:station:TCOON:042:1,2016-02-15T11:30:00Z,27.8888,-97.5696,0.0,20.3,1111122 
TCOON,ioos:station:TCOON:042:1,2016-02-15T12:30:00Z,27.8888,-97.5696,0.0,20.3,1111122 
TCOON,ioos:station:TCOON:042:1,2016-02-15T13:30:00Z,27.8888,-97.5696,0.0,20.3,1111122 
TCOON,ioos:station:TCOON:042:1,2016-02-15T14:30:00Z,27.8888,-97.5696,0.0,20.3,1111122 
TCOON,ioos:station:TCOON:042:1,2016-02-15T15:30:00Z,27.8888,-97.5696,0.0,20.5,1111122 
TCOON,ioos:station:TCOON:042:1,2016-02-15T16:30:00Z,27.8888,-97.5696,0.0,20.3,1111122 
TCOON,ioos:station:TCOON:042:1,2016-02-15T18:30:00Z,27.8888,-97.5696,0.0,20.1,1111122 
TCOON,ioos:station:TCOON:042:1,2016-02-15T20:30:00Z,27.8888,-97.5696,0.0,19.9,1111122 
TCOON,ioos:station:TCOON:042:1,2016-02-15T21:30:00Z,27.8888,-97.5696,0.0,20.0,1111122 
TCOON,ioos:station:TCOON:042:1,2016-02-15T22:30:00Z,27.8888,-97.5696,0.0,19.9,1111122 
TCOON,ioos:station:TCOON:042:1,2016-02-15T23:30:00Z,27.8888,-97.5696,0.0,20.0,1111122 
TCOON,ioos:station:TCOON:042:1,2016-02-16T00:30:00Z,27.8888,-97.5696,0.0,20.1,1111122 
TCOON,ioos:station:TCOON:042:1,2016-02-16T02:30:00Z,27.8888,-97.5696,0.0,20.8,1111122 
TCOON,ioos:station:TCOON:042:1,2016-02-16T03:30:00Z,27.8888,-97.5696,0.0,20.8,1111122 
TCOON,ioos:station:TCOON:042:1,2016-02-16T05:30:00Z,27.8888,-97.5696,0.0,21.3,1111122 
TCOON,ioos:station:TCOON:042:1,2016-02-16T06:30:00Z,27.8888,-97.5696,0.0,20.9,1111122 
TCOON,ioos:station:TCOON:042:1,2016-02-16T07:30:00Z,27.8888,-97.5696,0.0,20.9,1111122 
TCOON,ioos:station:TCOON:042:1,2016-02-16T10:00:00Z,27.8888,-97.5696,0.0,21.4,1111122 
TCOON,ioos:station:TCOON:042:1,2016-02-16T10:30:00Z,27.8888,-97.5696,0.0,21.5,1111122 
TCOON,ioos:station:TCOON:042:1,2016-02-16T11:30:00Z,27.8888,-97.5696,0.0,21.4,1111122 
TCOON,ioos:station:TCOON:042:1,2016-02-16T12:30:00Z,27.8888,-97.5696,0.0,21.5,1111122 
TCOON,ioos:station:TCOON:042:1,2016-02-16T13:30:00Z,27.8888,-97.5696,0.0,21.5,1111122 
TCOON,ioos:station:TCOON:042:1,2016-02-16T15:30:00Z,27.8888,-97.5696,0.0,10.4,1111122 
TCOON,ioos:station:TCOON:042:1,2016-02-16T16:30:00Z,27.8888,-97.5696,0.0,8.9,1111122 
TCOON,ioos:station:TCOON:042:1,2016-02-16T17:30:00Z,27.8888,-97.5696,0.0,19.4,1111122 
TCOON,ioos:station:TCOON:042:1,2016-02-16T18:30:00Z,27.8888,-97.5696,0.0,18.9,1111122 
TCOON,ioos:station:TCOON:042:1,2016-02-16T19:30:00Z,27.8888,-97.5696,0.0,19.0,1111122 
TCOON,ioos:station:TCOON:042:1,2016-02-16T20:30:00Z,27.8888,-97.5696,0.0,20.8,1111122 
TCOON,ioos:station:TCOON:042:1,2016-02-16T22:30:00Z,27.8888,-97.5696,0.0,22.9,1111122 
TCOON,ioos:station:TCOON:042:1,2016-02-17T01:30:00Z,27.8888,-97.5696,0.0,23.6,1111122 
TCOON,ioos:station:TCOON:042:1,2016-02-17T02:30:00Z,27.8888,-97.5696,0.0,23.3,1111122 
TCOON,ioos:station:TCOON:042:1,2016-02-17T03:30:00Z,27.8888,-97.5696,0.0,23.8,1111122 
TCOON,ioos:station:TCOON:042:1,2016-02-17T05:30:00Z,27.8888,-97.5696,0.0,23.8,1111122 
TCOON,ioos:station:TCOON:042:1,2016-02-17T06:30:00Z,27.8888,-97.5696,0.0,23.7,1111122 
TCOON,ioos:station:TCOON:042:1,2016-02-17T07:30:00Z,27.8888,-97.5696,0.0,23.4,1111122 
TCOON,ioos:station:TCOON:042:1,2016-02-17T08:30:00Z,27.8888,-97.5696,0.0,23.5,1111122 
TCOON,ioos:station:TCOON:042:1,2016-02-17T10:00:00Z,27.8888,-97.5696,0.0,23.7,1111122 
TCOON,ioos:station:TCOON:042:1,2016-02-17T10:30:00Z,27.8888,-97.5696,0.0,23.6,1111122 
TCOON,ioos:station:TCOON:042:1,2016-02-17T11:30:00Z,27.8888,-97.5696,0.0,23.1,1111122 
TCOON,ioos:station:TCOON:042:1,2016-02-17T12:30:00Z,27.8888,-97.5696,0.0,22.9,1111122 
TCOON,ioos:station:TCOON:042:1,2016-02-17T13:30:00Z,27.8888,-97.5696,0.0,23.1,1111122 
TCOON,ioos:station:TCOON:042:1,2016-02-17T14:30:00Z,27.8888,-97.5696,0.0,20.8,1111122 
TCOON,ioos:station:TCOON:042:1,2016-02-17T15:30:00Z,27.8888,-97.5696,0.0,21.7,1111122 
TCOON,ioos:station:TCOON:042:1,2016-02-17T16:30:00Z,27.8888,-97.5696,0.0,23.8,1111122 
TCOON,ioos:station:TCOON:042:1,2016-02-17T17:30:00Z,27.8888,-97.5696,0.0,24.4,1111122 
TCOON,ioos:station:TCOON:042:1,2016-02-17T19:30:00Z,27.8888,-97.5696,0.0,24.5,1111122 
TCOON,ioos:station:TCOON:042:1,2016-02-17T20:30:00Z,27.8888,-97.5696,0.0,24.9,1111122 
TCOON,ioos:station:TCOON:042:1,2016-02-17T21:30:00Z,27.8888,-97.5696,0.0,25.3,1111122 
TCOON,ioos:station:TCOON:042:1,2016-02-17T22:30:00Z,27.8888,-97.5696,0.0,25.8,1111122 
TCOON,ioos:station:TCOON:042:1,2016-02-17T23:30:00Z,27.8888,-97.5696,0.0,7.6,1111122 
TCOON,ioos:station:TCOON:042:1,2016-02-18T00:30:00Z,27.8888,-97.5696,0.0,26.0,1111122 
TCOON,ioos:station:TCOON:042:1,2016-02-18T01:30:00Z,27.8888,-97.5696,0.0,26.1,1111122 
TCOON,ioos:station:TCOON:042:1,2016-02-18T02:30:00Z,27.8888,-97.5696,0.0,26.1,1111122 
TCOON,ioos:station:TCOON:042:1,2016-02-18T03:30:00Z,27.8888,-97.5696,0.0,26.3,1111122 
TCOON,ioos:station:TCOON:042:1,2016-02-18T04:30:00Z,27.8888,-97.5696,0.0,26.3,1111122 
TCOON,ioos:station:TCOON:042:1,2016-02-18T05:30:00Z,27.8888,-97.5696,0.0,26.6,1111122 
TCOON,ioos:station:TCOON:042:1,2016-02-18T06:30:00Z,27.8888,-97.5696,0.0,26.9,1111122 
TCOON,ioos:station:TCOON:042:1,2016-02-18T07:30:00Z,27.8888,-97.5696,0.0,27.0,1111122 
TCOON,ioos:station:TCOON:042:1,2016-02-18T08:30:00Z,27.8888,-97.5696,0.0,26.7,1111122 
TCOON,ioos:station:TCOON:042:1,2016-02-18T10:00:00Z,27.8888,-97.5696,0.0,26.3,1111122 
TCOON,ioos:station:TCOON:042:1,2016-02-18T10:30:00Z,27.8888,-97.5696,0.0,26.3,1111122 
TCOON,ioos:station:TCOON:042:1,2016-02-18T12:30:00Z,27.8888,-97.5696,0.0,26.2,1111122 
TCOON,ioos:station:TCOON:042:1,2016-02-18T13:30:00Z,27.8888,-97.5696,0.0,20.1,1111122 
TCOON,ioos:station:TCOON:042:1,2016-02-18T14:30:00Z,27.8888,-97.5696,0.0,26.2,1111122 
TCOON,ioos:station:TCOON:042:1,2016-02-18T16:30:00Z,27.8888,-97.5696,0.0,26.1,1111122 
TCOON,ioos:station:TCOON:042:1,2016-02-18T17:30:00Z,27.8888,-97.5696,0.0,25.9,1111122 